Weather observations for the past three days for
Nevada County Air Park
Imperial (Metric)
Date Time (pdt) Wind (mph) Vis. (mi.) Weather Sky Cond. Temperature (ºF) Relative Humidity Wind Chill (°F) Heat Index (°F) Pressure Precipitation (in)
Air Dwpt 6 hour altimeter (in) sea level (mb) 1 hr 3 hr 6 hr
Max. Min.
04 16:55 Calm 0.15 Fog OVC002 44.6 44.6 100% 29.96 0.0
04 16:35 Vrbl 5 0.15 Fog OVC002 44.6 44.6 100% 43 29.96 0.0
04 16:15 Calm 0.15 Fog OVC002 46.4 46.4 100% 29.95 0.0
04 15:55 Vrbl 7 0.15 Fog OVC002 46.4 46.4 100% 43 29.97 0.0
04 15:35 Calm 0.25 Fog OVC002 46.4 46.4 100% 29.95 0.0
04 15:15 Calm 0.15 Fog OVC002 46.4 46.4 100% 29.96 0.0
04 14:55 Calm 1.00 Fog/Mist OVC003 46.4 46.4 100% 29.97 0.0
04 14:35 Calm 10.00 Overcast BKN005 BKN008 OVC012 48.2 46.4 94% 29.96 0.0
04 14:15 Calm 10.00 Overcast OVC004 46.4 46.4 100% 29.97 0.0
04 13:55 Calm 9.00 Overcast OVC003 46.4 46.4 100% 29.96 0.0
04 13:35 Calm 0.50 Fog/Mist OVC003 48.2 46.4 94% 29.96 0.0
04 13:15 Calm 10.00 Overcast OVC004 48.2 46.4 94% 29.97 0.0
04 12:55 Calm 10.00 Overcast BKN006 OVC010 48.2 46.4 94% 29.97 0.0
04 12:35 Calm 8.00 Overcast SCT007 BKN011 OVC032 48.2 46.4 94% 29.97 0.0
04 12:15 Calm 8.00 Overcast SCT013 BKN022 OVC032 48.2 46.4 94% 29.98 0.0
04 11:55 Calm 10.00 Overcast FEW013 SCT022 OVC028 50 44.6 82% 29.98 0.0
04 11:35 Calm 10.00 Overcast BKN020 OVC028 50 44.6 82% 29.98 0.0
04 11:15 Calm 10.00 Overcast OVC020 50 42.8 76% 29.97 0.0
04 10:55 Calm 10.00 Overcast OVC019 48.2 42.8 82% 29.98 0.0
04 10:35 Calm 10.00 Overcast OVC018 48.2 42.8 82% 29.97 0.0
04 10:15 Calm 10.00 Overcast OVC017 48.2 42.8 82% 29.97 0.0
04 09:55 Calm 10.00 Overcast BKN016 OVC027 48.2 42.8 82% 29.96 0.0
04 09:35 Calm 10.00 Overcast BKN016 OVC027 48.2 42.8 82% 29.96 0.0
04 09:15 Calm 10.00 Overcast OVC016 48.2 42.8 82% 29.96 0.0
04 08:55 Calm 10.00 Overcast OVC015 48.2 42.8 82% 29.96 0.0
04 08:35 Calm 10.00 Overcast OVC013 48.2 42.8 82% 29.95 0.0
04 08:15 Calm 10.00 Overcast OVC013 46.4 42.8 87% 29.95 0.0
04 07:55 Calm 10.00 Overcast OVC014 46.4 42.8 87% 29.95 0.0
04 07:35 Calm 10.00 Overcast OVC012 46.4 42.8 87% 29.95 0.0
04 07:15 Calm 10.00 Overcast OVC012 46.4 44.6 93% 29.94 0.0
04 06:55 Calm 10.00 Overcast OVC012 46.4 44.6 93% 29.94 0.0
04 06:35 Calm 10.00 Overcast OVC011 46.4 42.8 87% 29.94 0.0
04 06:15 Calm 10.00 Overcast OVC010 46.4 42.8 87% 29.93 0.0
04 05:55 Calm 10.00 Overcast OVC009 46.4 42.8 87% 29.92 0.0
04 05:35 Calm 10.00 Overcast OVC009 46.4 42.8 87% 29.92 0.0
04 05:15 Calm 10.00 Overcast OVC009 46.4 44.6 93% 29.92 0.0
04 04:55 Calm 10.00 Overcast OVC008 46.4 44.6 93% 29.93 0.0
04 04:35 Calm 10.00 Overcast OVC007 46.4 42.8 87% 29.92 0.0
04 04:15 Calm 10.00 Overcast OVC006 46.4 42.8 87% 29.93 0.0
04 03:55 Calm 10.00 Overcast OVC005 46.4 42.8 87% 29.92 0.0
04 03:35 Calm 10.00 Overcast OVC005 46.4 44.6 93% 29.92 0.0
04 03:15 Calm 10.00 Overcast BKN005 OVC055 46.4 46.4 100% 29.93 0.0
04 02:55 Calm 10.00 Overcast FEW004 BKN055 OVC095 48.2 46.4 94% 29.93 0.0
04 02:35 Calm 10.00 Mostly Cloudy FEW031 SCT055 BKN100 50 46.4 88% 29.93 0.0
04 02:15 Calm 10.00 Overcast FEW026 BKN100 OVC120 50 46.4 88% 29.93 0.0
04 01:55 Calm 10.00 Overcast FEW100 OVC120 50 46.4 88% 29.93 0.0
04 01:35 Calm 10.00 Overcast FEW031 SCT055 OVC120 48.2 46.4 94% 29.94 0.0
04 01:15 Calm 10.00 Mostly Cloudy FEW030 SCT038 BKN046 48.2 46.4 94% 29.94 0.0
04 00:55 Calm 10.00 Overcast SCT026 BKN030 OVC045 48.2 46.4 94% 29.94 0.0
04 00:35 Calm 10.00 Overcast BKN022 OVC026 50 46.4 88% 29.94 0.0
04 00:15 Calm 10.00 Overcast FEW006 BKN016 OVC021 50 46.4 88% 29.95 0.0
03 23:55 Calm 10.00 Overcast SCT006 BKN009 OVC014 50 46.4 88% 29.95 0.0
03 23:35 Calm 10.00 Overcast OVC007 50 48.2 94% 29.95 0.0
03 23:15 Calm 10.00 Overcast BKN008 OVC017 50 48.2 94% 29.95 0.0
03 22:55 Calm 10.00 Overcast OVC016 50 48.2 94% 29.95 0.0
03 22:35 Calm 10.00 Overcast OVC015 50 46.4 88% 29.95 0.0
03 22:15 Calm 10.00 Overcast OVC015 50 46.4 88% 29.94 0.0
03 21:55 Calm 10.00 Overcast BKN013 OVC017 50 46.4 88% 29.94 0.0
03 21:35 Calm 10.00 Overcast OVC015 50 48.2 94% 29.93 0.0
03 21:15 Calm 10.00 Overcast OVC015 50 46.4 88% 29.93 0.0
03 20:55 Calm 10.00 Overcast OVC014 50 46.4 88% 29.93 0.0
03 20:35 Calm 10.00 Overcast OVC013 50 46.4 88% 29.92 0.0
03 20:15 Calm 10.00 Overcast OVC012 50 46.4 88% 29.91 0.0
03 19:55 Calm 10.00 Overcast OVC012 50 46.4 88% 29.9 0.0
03 19:35 Calm 10.00 Overcast OVC007 50 48.2 94% 29.9 0.0
03 19:15 Calm 10.00 Overcast OVC007 51.8 48.2 88% 29.89 0.0
03 18:55 Calm 10.00 Overcast OVC008 50 46.4 88% 29.9 0.0
03 18:35 Calm 10.00 Overcast OVC007 51.8 48.2 88% 29.89 0.0
03 18:15 Calm 10.00 Overcast OVC007 51.8 48.2 88% 29.89 0.0
03 17:55 Calm 10.00 Overcast OVC007 51.8 48.2 88% 29.89 0.0
03 17:35 Calm 10.00 Mostly Cloudy BKN008 51.8 48.2 88% 29.89 0.0
03 17:15 Vrbl 6 10.00 Fair CLR 53.6 48.2 82% 29.87 0.0
03 16:55 NW 5 10.00 A Few Clouds FEW070 FEW085 53.6 48.2 82% 29.87 0.0
03 16:35 Calm 10.00 Fair CLR 51.8 48.2 88% 29.9 0.0
03 16:15 Calm 10.00 Partly Cloudy SCT085 51.8 48.2 88% 29.9 0.0
03 15:55 Calm 10.00 Mostly Cloudy BKN090 BKN110 51.8 48.2 88% 29.9 0.0
03 15:35 Calm 10.00 Mostly Cloudy SCT008 BKN110 51.8 48.2 88% 29.91 0.0
03 15:15 Calm 10.00 Mostly Cloudy SCT008 SCT065 BKN090 51.8 48.2 88% 29.91 0.0
03 14:55 Calm 10.00 Partly Cloudy SCT006 SCT065 SCT090 51.8 48.2 88% 29.9 0.0
03 14:35 Vrbl 5 G 13 10.00 Mostly Cloudy BKN006 BKN060 BKN075 51.8 48.2 88% 29.91 0.0
03 14:15 Vrbl 5 10.00 Overcast FEW070 BKN080 OVC100 51.8 48.2 88% 29.9 0.0
03 13:55 Calm 10.00 Mostly Cloudy FEW008 FEW070 BKN085 53.6 48.2 82% 29.89 0.0
03 13:35 Vrbl 7 10.00 A Few Clouds FEW080 55.4 50 82% 29.9 0.0
03 13:15 Calm 10.00 A Few Clouds FEW095 59 50 72% 29.89 0.0
03 12:55 Calm 10.00 Fair CLR 60.8 50 68% 29.89 0.0
03 12:35 Calm 10.00 Fair CLR 62.6 50 64% 29.89 0.0
03 12:15 Calm 10.00 Fair CLR 62.6 50 64% 29.89 0.0
03 11:55 Calm 10.00 Fair CLR 62.6 51.8 68% 29.89 0.0
03 11:35 Calm 10.00 Fair CLR 64.4 51.8 64% 29.89 0.0
03 11:15 Calm 10.00 Fair CLR 64.4 50 60% 29.89 0.0
03 10:55 Calm 10.00 A Few Clouds FEW110 60.8 50 68% 29.89 0.0
03 10:35 Calm 10.00 Mostly Cloudy BKN110 59 51.8 77% 29.9 0.0
03 10:15 Calm 10.00 Mostly Cloudy BKN110 60.8 48.2 63% 29.89 0.0
03 09:55 Calm 10.00 Partly Cloudy SCT110 60.8 48.2 63% 29.88 0.0
03 09:35 Calm 10.00 Fair CLR 60.8 48.2 63% 29.88 0.0
03 09:15 Calm 10.00 A Few Clouds FEW120 57.2 48.2 72% 29.88 0.0
03 08:55 Calm 10.00 Fair CLR 57.2 48.2 72% 29.88 0.0
03 08:35 Calm 10.00 A Few Clouds FEW120 55.4 48.2 77% 29.87 0.0
03 08:15 Calm 10.00 A Few Clouds FEW120 55.4 46.4 72% 29.87 0.0
03 07:55 Calm 10.00 Fair CLR 55.4 48.2 77% 29.86 0.0
03 07:35 Calm 10.00 Fair CLR 55.4 46.4 72% 29.86 0.0
03 07:15 Calm 10.00 Fair CLR 53.6 46.4 77% 29.85 0.0
03 06:55 Calm 10.00 Fair CLR 55.4 44.6 67% 29.84 0.0
03 06:35 Calm 10.00 Fair CLR 55.4 44.6 67% 29.84 0.0
03 06:15 Calm 10.00 Fair CLR 55.4 44.6 67% 29.83 0.0
03 05:55 Calm 10.00 Fair CLR 57.2 44.6 63% 29.82 0.0
03 05:35 Calm 10.00 Fair CLR 57.2 42.8 59% 29.83 0.0
03 05:15 Calm 10.00 Fair CLR 59 42.8 55% 29.83 0.0
03 04:55 Calm 10.00 Fair CLR 60.8 41 48% 29.83 0.0
03 04:35 Calm 10.00 A Few Clouds FEW045 60.8 41 48% 29.83 0.0
03 04:15 Calm 10.00 A Few Clouds FEW045 FEW050 62.6 39.2 42% 29.84 0.0
03 03:55 Calm 10.00 Fair CLR 60.8 41 48% 29.84 0.0
03 03:35 Calm 10.00 Fair CLR 62.6 39.2 42% 29.84 0.0
03 03:15 Calm 10.00 Fair CLR 60.8 41 48% 29.84 0.0
03 02:55 Calm 10.00 Partly Cloudy FEW050 SCT060 62.6 41 45% 29.85 0.0
03 02:35 Calm 10.00 Partly Cloudy SCT050 SCT060 62.6 41 45% 29.85 0.0
03 02:15 Calm 10.00 Mostly Cloudy SCT050 BKN110 62.6 41 45% 29.86 0.0
03 01:55 Calm 10.00 Mostly Cloudy SCT049 SCT055 BKN110 60.8 41 48% 29.87 0.0
03 01:35 Calm 10.00 Mostly Cloudy BKN050 BKN055 62.6 41 45% 29.87 0.0
03 01:15 Calm 10.00 Mostly Cloudy SCT048 BKN055 BKN110 62.6 41 45% 29.88 0.0
03 00:55 Calm 10.00 Overcast FEW043 SCT050 OVC110 62.6 41 45% 29.89 0.0
03 00:35 Calm 10.00 Overcast FEW060 OVC110 62.6 41 45% 29.9 0.0
03 00:15 Calm 10.00 Mostly Cloudy SCT060 BKN110 62.6 42.8 49% 29.9 0.0
02 23:55 Calm 10.00 Mostly Cloudy SCT060 BKN110 62.6 42.8 49% 29.9 0.0
02 23:35 Calm 10.00 Partly Cloudy SCT060 62.6 42.8 49% 29.9 0.0
02 23:15 Calm 10.00 A Few Clouds FEW060 62.6 42.8 49% 29.9 0.0
02 22:55 Calm 10.00 A Few Clouds FEW060 62.6 44.6 52% 29.91 0.0
02 22:35 Calm 10.00 A Few Clouds FEW060 62.6 44.6 52% 29.91 0.0
02 22:15 Calm 10.00 Fair CLR 64.4 46.4 52% 29.91 0.0
02 21:55 E 5 10.00 A Few Clouds FEW120 64.4 46.4 52% 29.91 0.0
02 21:35 Calm 10.00 Mostly Cloudy BKN120 62.6 46.4 56% 29.91 0.0
02 21:15 Calm 10.00 Overcast OVC120 60.8 48.2 63% 29.9 0.0
02 20:55 Calm 10.00 Overcast OVC110 60.8 48.2 63% 29.9 0.0
02 20:35 Calm 10.00 Overcast OVC120 62.6 48.2 60% 29.89 0.0
02 20:15 Calm 10.00 Overcast OVC110 62.6 48.2 60% 29.89 0.0
02 19:55 Calm 10.00 Mostly Cloudy BKN110 64.4 48.2 56% 29.89 0.0
02 19:35 Calm 10.00 A Few Clouds FEW110 64.4 44.6 49% 29.89 0.0
02 19:15 Calm 10.00 Fair CLR 64.4 44.6 49% 29.89 0.0
02 18:55 Calm 10.00 Fair CLR 66.2 44.6 46% 29.89 0.0
02 18:35 Calm 10.00 Fair CLR 66.2 48.2 52% 29.89 0.0
02 18:15 Calm 10.00 Fair CLR 66.2 46.4 49% 29.89 0.0
02 17:55 Calm 10.00 Fair CLR 68 46.4 46% 29.89 0.0
02 17:35 Calm 10.00 Fair CLR 68 46.4 46% 29.89 0.0
02 17:15 Calm 10.00 Fair CLR 68 46.4 46% 29.89 0.0
02 16:55 Vrbl 5 10.00 Fair CLR 68 44.6 43% 29.89 0.0
02 16:35 Calm 10.00 Fair CLR 69.8 44.6 40% 29.9 0.0
02 16:15 Vrbl 3 10.00 Fair CLR 69.8 44.6 40% 29.9 0.0
02 15:55 Calm 10.00 Fair CLR 69.8 46.4 43% 29.91 0.0
02 15:35 Calm 10.00 Fair CLR 69.8 46.4 43% 29.92 0.0
02 15:15 Calm 10.00 Fair CLR 68 46.4 46% 29.93 0.0
02 14:55 Calm 10.00 Fair CLR 68 48.2 49% 29.93 0.0
02 14:35 Vrbl 5 10.00 Fair CLR 68 48.2 49% 29.94 0.0
02 14:15 Calm 10.00 Fair CLR 68 50 53% 29.94 0.0
02 13:55 Calm 10.00 Fair CLR 68 50 53% 29.95 0.0
02 13:35 Vrbl 3 10.00 Fair CLR 68 48.2 49% 29.95 0.0
02 13:15 Vrbl 5 10.00 Fair CLR 68 48.2 49% 29.95 0.0
02 12:55 Vrbl 5 10.00 Fair CLR 68 48.2 49% 29.95 0.0
02 12:35 Vrbl 5 10.00 Fair CLR 68 46.4 46% 29.96 0.0
02 12:15 Calm 10.00 Fair CLR 68 48.2 49% 29.95 0.0
02 11:55 Calm 10.00 Fair CLR 68 50 53% 29.95 0.0
02 11:35 Calm 10.00 Fair CLR 68 48.2 49% 29.95 0.0
02 11:15 Calm 10.00 Fair CLR 68 50 53% 29.95 0.0
02 10:55 Calm 10.00 Fair CLR 68 48.2 49% 29.95 0.0
02 10:35 Calm 10.00 Fair CLR 68 46.4 46% 29.95 0.0
02 10:15 Calm 10.00 Fair CLR 68 44.6 43% 29.94 0.0
02 09:55 S 8 10.00 Fair CLR 68 44.6 43% 29.94 0.0
02 09:35 Calm 10.00 Fair CLR 66.2 46.4 49% 29.94 0.0
02 09:15 Calm 10.00 Fair CLR 66.2 46.4 49% 29.94 0.0
02 08:55 Calm 10.00 Fair CLR 66.2 46.4 49% 29.94 0.0
02 08:35 Calm 10.00 Fair CLR 66.2 44.6 46% 29.94 0.0
02 08:15 Calm 10.00 Fair CLR 62.6 46.4 56% 29.94 0.0
02 07:55 Calm 10.00 Fair CLR 64.4 42.8 46% 29.94 0.0
02 07:35 Calm 10.00 Fair CLR 64.4 42.8 46% 29.93 0.0
02 07:15 Calm 10.00 Fair CLR 62.6 42.8 49% 29.93 0.0
02 06:55 Calm 10.00 Fair CLR 60.8 42.8 52% 29.93 0.0
02 06:35 Calm 10.00 Fair CLR 60.8 41 48% 29.92 0.0
02 06:15 Calm 10.00 Fair CLR 62.6 41 45% 29.92 0.0
02 05:55 Calm 10.00 Fair CLR 62.6 41 45% 29.91 0.0
02 05:35 E 7 10.00 Fair CLR 62.6 41 45% 29.91 0.0
02 05:15 E 8 10.00 Fair CLR 62.6 41 45% 29.91 0.0
02 04:55 E 7 10.00 A Few Clouds FEW050 62.6 41 45% 29.91 0.0
02 04:35 E 7 10.00 A Few Clouds FEW050 FEW055 62.6 41 45% 29.92 0.0
02 04:15 E 7 10.00 A Few Clouds FEW050 62.6 42.8 49% 29.92 0.0
02 03:55 E 7 10.00 Fair CLR 62.6 42.8 49% 29.92 0.0
02 03:35 E 5 10.00 Fair CLR 62.6 42.8 49% 29.93 0.0
02 03:15 E 7 10.00 Fair CLR 62.6 44.6 52% 29.93 0.0
02 02:55 E 6 10.00 Fair CLR 62.6 44.6 52% 29.93 0.0
02 02:35 E 6 10.00 Fair CLR 62.6 44.6 52% 29.94 0.0
02 02:15 E 6 10.00 Fair CLR 62.6 44.6 52% 29.94 0.0
02 01:55 Calm 10.00 Fair CLR 62.6 46.4 56% 29.95 0.0
02 01:35 SE 5 10.00 Fair CLR 62.6 46.4 56% 29.95 0.0
02 01:15 E 6 10.00 Fair CLR 62.6 46.4 56% 29.95 0.0
02 00:55 Calm 10.00 Fair CLR 62.6 46.4 56% 29.96 0.0
02 00:35 E 6 10.00 Fair CLR 62.6 46.4 56% 29.96 0.0
02 00:15 Calm 10.00 Fair CLR 62.6 48.2 60% 29.96 0.0
01 23:55 E 5 10.00 Fair CLR 62.6 48.2 60% 29.96 0.0
01 23:35 SE 5 10.00 Fair CLR 62.6 48.2 60% 29.96 0.0
01 23:15 Calm 10.00 Fair CLR 62.6 48.2 60% 29.96 0.0
01 22:55 Calm 10.00 Fair CLR 62.6 46.4 56% 29.97 0.0
01 22:35 Calm 10.00 Fair CLR 62.6 48.2 60% 29.97 0.0
01 22:15 Calm 10.00 Fair CLR 60.8 48.2 63% 29.97 0.0
01 21:55 Calm 10.00 Fair CLR 62.6 48.2 60% 29.97 0.0
01 21:35 Calm 10.00 Fair CLR 60.8 50 68% 29.97 0.0
01 21:15 Calm 10.00 Fair CLR 62.6 50 64% 29.96 0.0
01 20:55 Calm 10.00 Fair CLR 64.4 48.2 56% 29.95 0.0
01 20:35 Calm 10.00 Fair CLR 64.4 48.2 56% 29.95 0.0
01 20:15 Calm 10.00 Fair CLR 64.4 48.2 56% 29.95 0.0
01 19:55 Calm 10.00 Fair CLR 66.2 48.2 52% 29.95 0.0
01 19:35 Calm 10.00 Fair CLR 66.2 46.4 49% 29.94 0.0
01 19:15 Calm 10.00 Fair CLR 66.2 46.4 49% 29.94 0.0
01 18:55 Calm 10.00 Fair CLR 68 46.4 46% 29.95 0.0
01 18:35 Calm 10.00 Fair CLR 69.8 46.4 43% 29.95 0.0
01 18:15 Calm 10.00 Fair CLR 69.8 46.4 43% 29.95 0.0
01 17:55 Calm 10.00 Fair CLR 69.8 42.8 38% 29.95 0.0
01 17:35 Calm 10.00 Fair CLR 71.6 42.8 36% 29.95 0.0
01 17:15 Calm 10.00 Fair CLR 71.6 41 33% 29.96 0.0
Date Time (pdt) Wind (mph) Vis. (mi.) Weather Sky Cond. Air Dwpt Max. Min. Relative Humidity Wind Chill (°F) Heat Index (°F) altimeter (in) sea level (mb) 1 hr 3 hr 6 hr
6 hour
Temperature (ºF) Pressure Precipitation (in)